FW6456 Weather Reports


time (UTC)temp
C
wind
direction
speed
KPH
gust
KPH
rain 1hr
cm
rain 24hr
cm
rain mn
cm
humidity
%
barometer
mb
20260502170120 15 136 0.0 0.0 0.00 0.00 0.00 62 3410.5
20260502164107 16 354 3.2 4.8 0.00 0.00 0.00 56 3410.4
20260502163603 15 114 0.0 0.0 0.00 0.00 0.00 61 3410.6
20260502163100 15 3 4.8 4.8 0.00 0.00 0.00 58 3410.7
20260502162556 15 276 4.8 11.3 0.00 0.00 0.00 58 3410.6
20260502162053 15 337 0.0 3.2 0.00 0.00 0.00 58 3410.6
20260502161550 15 114 0.0 3.2 0.00 0.00 0.00 63 3410.7
20260502161048 15 26 4.8 8.0 0.00 0.00 0.00 59 3410.5
20260502160546 15 127 3.2 4.8 0.00 0.00 0.00 60 3410.9
20260502151959 13 59 0.0 3.2 0.00 0.00 0.00 74 3410.9
20260502151455 13 13 1.6 3.2 0.00 0.00 0.00 72 3410.9
20260502150952 13 111 0.0 0.0 0.00 0.00 0.00 74 3410.7
20260502150450 13 117 1.6 3.2 0.00 0.00 0.00 76 3410.7
20260502130336 7 265 0.0 0.0 0.00 0.00 0.00 99 3410.3
20260502123318 5 265 0.0 0.0 0.00 0.00 0.00 99 3410.2
20260502122815 5 265 0.0 0.0 0.00 0.00 0.00 99 3410.4
20260502122310 5 265 0.0 0.0 0.00 0.00 0.00 99 3410.3
20260502121809 5 265 0.0 0.0 0.00 0.00 0.00 99 3410.2
20260502121306 5 265 0.0 0.0 0.00 0.00 0.00 99 3410.2
20260502120803 5 265 0.0 0.0 0.00 0.00 0.00 99 3410.4
20260502120300 5 265 0.0 0.0 0.00 0.00 0.00 99 3410.1
20260502115757 5 265 0.0 0.0 0.00 0.00 0.00 99 3410.0
20260502115248 5 265 0.0 0.0 0.00 0.00 0.00 99 3410.1
20260502114744 5 265 0.0 0.0 0.00 0.00 0.00 99 3410.0
20260502114241 5 265 0.0 0.0 0.00 0.00 0.00 99 3410.0
20260502113738 4 265 0.0 0.0 0.00 0.00 0.00 99 3410.0
20260502113236 4 265 0.0 0.0 0.00 0.00 0.00 99 3409.7
20260502112734 4 265 0.0 0.0 0.00 0.00 0.00 99 3409.8
20260502112231 4 265 0.0 0.0 0.00 0.00 0.00 99 3409.6
20260502111728 3 265 0.0 0.0 0.00 0.00 0.00 99 3409.6
20260502111225 3 265 0.0 0.0 0.00 0.00 0.00 99 3409.5
20260502110723 3 265 0.0 0.0 0.00 0.00 0.00 99 3409.4
20260502110221 3 265 0.0 0.0 0.00 0.00 0.00 99 3409.6
20260502105719 3 265 0.0 0.0 0.00 0.00 0.00 99 3409.4
20260502105215 4 265 0.0 0.0 0.00 0.00 0.00 99 3409.4
20260502104712 4 265 0.0 0.0 0.00 0.00 0.00 99 3409.3
20260502104210 4 265 0.0 0.0 0.00 0.00 0.00 99 3409.3
20260502103707 4 265 0.0 0.0 0.00 0.00 0.00 99 3409.5
20260502103205 4 265 0.0 0.0 0.00 0.00 0.00 99 3409.3
20260502102702 4 265 0.0 0.0 0.00 0.00 0.00 99 3409.1
20260502102158 4 265 0.0 0.0 0.00 0.00 0.00 99 3409.2
20260502101656 5 265 0.0 0.0 0.00 0.00 0.00 99 3409.2
20260502101154 5 265 0.0 0.0 0.00 0.00 0.00 99 3409.3
20260502100653 5 265 0.0 0.0 0.00 0.00 0.00 99 3409.4
20260502100150 5 265 0.0 0.0 0.00 0.00 0.00 99 3409.3
20260502091124 3 265 0.0 0.0 0.00 0.00 0.00 99 3409.1
20260502090621 3 265 0.0 0.0 0.00 0.00 0.00 99 3409.2
20260502090118 4 265 0.0 0.0 0.00 0.00 0.00 99 3409.1
20260502071516 5 265 0.0 0.0 0.00 0.00 0.00 98 3409.3
20260502071014 5 265 0.0 0.0 0.00 0.00 0.00 98 3409.6
20260502070511 5 265 0.0 0.0 0.00 0.00 0.00 98 3409.5
20260502070010 5 265 0.0 0.0 0.00 0.00 0.00 98 3409.8
20260502065508 5 265 0.0 0.0 0.00 0.00 0.00 98 3409.6
20260502065005 5 265 0.0 0.0 0.00 0.00 0.00 98 3409.7
20260502064504 5 265 0.0 0.0 0.00 0.00 0.00 98 3409.6
20260502064000 5 265 0.0 0.0 0.00 0.00 0.00 98 3409.8
20260502063459 5 265 0.0 0.0 0.00 0.00 0.00 97 3409.9
20260502062955 5 265 0.0 0.0 0.00 0.00 0.00 97 3409.7
20260502062452 5 265 0.0 0.0 0.00 0.00 0.00 97 3409.9
20260502061951 5 265 0.0 0.0 0.00 0.00 0.00 97 3409.9
20260502061449 5 265 0.0 0.0 0.00 0.00 0.00 97 3409.8
20260502060944 5 265 0.0 0.0 0.00 0.00 0.00 97 3409.6
20260502060440 5 265 0.0 0.0 0.00 0.00 0.00 97 3409.8
20260502055937 5 265 0.0 0.0 0.00 0.00 0.00 97 3409.7
20260502055434 5 265 0.0 0.0 0.00 0.00 0.00 96 3409.9
20260502054929 5 265 0.0 0.0 0.00 0.00 0.00 96 3410.1
20260502054426 5 265 0.0 0.0 0.00 0.00 0.00 96 3409.8
20260502053923 5 265 0.0 0.0 0.00 0.00 0.00 96 3409.8
20260502053420 5 265 0.0 0.0 0.00 0.00 0.00 96 3409.6
20260502052918 6 265 0.0 0.0 0.00 0.00 0.00 96 3409.8
20260502052416 6 265 0.0 0.0 0.00 0.00 0.00 95 3409.7
20260502051914 6 265 0.0 0.0 0.00 0.00 0.00 95 3409.7
20260502051412 6 265 0.0 0.0 0.00 0.00 0.00 95 3410.1
20260502050908 6 265 0.0 0.0 0.00 0.00 0.00 95 3410.2
20260502050405 6 265 0.0 0.0 0.00 0.00 0.00 95 3410.1
20260502045902 6 265 0.0 0.0 0.00 0.00 0.00 94 3410.3
20260502045359 6 265 0.0 0.0 0.00 0.00 0.00 94 3410.1
20260502044856 6 265 0.0 0.0 0.00 0.00 0.00 94 3410.1
20260502044351 6 265 0.0 0.0 0.00 0.00 0.00 94 3410.1
20260502043849 -17 0.0 0.0 0.00 0.00 0.00 3410.5
20260502043346 -17 0.0 0.0 0.00 0.00 0.00 3410.4
20260502042840 6 265 0.0 0.0 0.00 0.00 0.00 92 3410.6
20260502042338 6 265 0.0 0.0 0.00 0.00 0.00 92 3410.3
20260502041835 6 265 0.0 0.0 0.00 0.00 0.00 92 3410.4
20260502041332 6 265 0.0 0.0 0.00 0.00 0.00 92 3410.2
20260502040829 6 265 0.0 0.0 0.00 0.00 0.00 91 3410.5
20260502040326 6 265 0.0 0.0 0.00 0.00 0.00 91 3410.5
20260502035822 6 265 0.0 0.0 0.00 0.00 0.00 91 3410.3
20260502035319 7 265 0.0 0.0 0.00 0.00 0.00 90 3410.4
20260502034817 7 265 0.0 0.0 0.00 0.00 0.00 90 3410.5
20260502034315 7 265 0.0 0.0 0.00 0.00 0.00 89 3410.5
20260502033813 7 265 0.0 0.0 0.00 0.00 0.00 88 3410.7
20260502033310 7 265 0.0 0.0 0.00 0.00 0.00 88 3410.7
20260502032807 7 265 0.0 0.0 0.00 0.00 0.00 88 3410.6
20260502032305 7 265 0.0 0.0 0.00 0.00 0.00 87 3410.7
20260502031800 7 265 0.0 0.0 0.00 0.00 0.00 87 3410.8
20260502031259 7 265 0.0 0.0 0.00 0.00 0.00 86 3410.8
20260502030757 8 265 0.0 0.0 0.00 0.00 0.00 85 3410.6
20260502030254 8 265 0.0 0.0 0.00 0.00 0.00 85 3410.8
20260502025751 8 265 0.0 0.0 0.00 0.00 0.00 85 3410.6
20260502025249 8 265 0.0 0.0 0.00 0.00 0.00 84 3410.5
20260502024747 8 265 0.0 0.0 0.00 0.00 0.00 83 3410.7
20260502024244 8 265 0.0 0.0 0.00 0.00 0.00 83 3410.4
20260502023742 8 265 0.0 0.0 0.00 0.00 0.00 82 3410.5
20260502023240 8 265 0.0 0.0 0.00 0.00 0.00 81 3410.5
20260502022738 8 265 0.0 0.0 0.00 0.00 0.00 80 3410.4
20260502022233 9 265 0.0 0.0 0.00 0.00 0.00 80 3410.4
20260502021731 9 265 0.0 0.0 0.00 0.00 0.00 79 3410.5
20260502021228 9 265 0.0 0.0 0.00 0.00 0.00 79 3410.4
20260502020725 10 265 0.0 0.0 0.00 0.00 0.00 77 3410.0
20260502020222 10 265 0.0 0.0 0.00 0.00 0.00 77 3410.3
20260502015720 10 265 0.0 0.0 0.00 0.00 0.00 76 3410.0
20260502015216 10 265 0.0 0.0 0.00 0.00 0.00 76 3410.1
20260502014714 10 265 0.0 0.0 0.00 0.00 0.00 74 3410.1
20260502014210 10 265 0.0 0.0 0.00 0.00 0.00 73 3410.2
20260502013707 11 265 0.0 0.0 0.00 0.00 0.00 73 3410.2
20260502013202 11 265 0.0 0.0 0.00 0.00 0.00 70 3410.2
20260502012659 11 265 0.0 0.0 0.00 0.00 0.00 69 3410.0
20260502012158 11 265 0.0 0.0 0.00 0.00 0.00 68 3409.9
20260502011654 11 265 0.0 0.0 0.00 0.00 0.00 67 3409.8
20260502011149 11 265 0.0 0.0 0.00 0.00 0.00 67 3409.8
20260502010648 12 265 0.0 0.0 0.00 0.00 0.00 65 3409.5
20260502010143 12 265 0.0 0.0 0.00 0.00 0.00 63 3409.5
20260502005641 12 265 0.0 0.0 0.00 0.00 0.00 63 3409.3
20260502005139 12 265 1.6 3.2 0.00 0.00 0.00 60 3409.4
20260502004634 12 22 0.0 0.0 0.00 0.00 0.00 60 3409.1
20260502004131 13 22 0.0 0.0 0.00 0.00 0.00 60 3408.8
20260502003629 13 22 0.0 0.0 0.00 0.00 0.00 59 3408.7
20260502003126 13 22 0.0 0.0 0.00 0.00 0.00 57 3408.8
20260502002622 13 22 0.0 0.0 0.00 0.00 0.00 58 3408.8
20260502002120 13 22 0.0 0.0 0.00 0.00 0.00 57 3408.5
20260502001617 14 21 0.0 0.0 0.00 0.00 0.00 54 3408.6
20260502001114 14 21 0.0 0.0 0.00 0.00 0.00 54 3408.5
20260502000613 14 348 0.0 0.0 0.00 0.00 0.00 54 3408.4
20260502000110 14 348 0.0 3.2 0.00 0.00 0.00 53 3408.4
20260501235605 14 337 3.2 4.8 0.00 0.00 0.00 53 3408.2
20260501235102 14 275 0.0 0.0 0.00 0.00 0.00 53 3408.0
20260501234557 14 8 3.2 4.8 0.00 0.00 0.00 53 3408.2
20260501234055 14 8 0.0 0.0 0.00 0.00 0.00 54 3408.3
20260501233553 14 9 0.0 0.0 0.00 0.00 0.00 54 3408.3
20260501233050 15 8 0.0 0.0 0.00 0.00 0.00 52 3408.1
20260501232546 15 9 0.0 0.0 0.00 0.00 0.00 51 3408.1
20260501232043 15 13 3.2 4.8 0.00 0.00 0.00 50 3408.0
20260501231541 15 265 4.8 8.0 0.00 0.00 0.00 49 3408.0
20260501231039 15 112 3.2 4.8 0.00 0.00 0.00 49 3408.1
20260501230538 15 17 3.2 4.8 0.00 0.00 0.00 50 3407.9
20260501230035 15 3 4.8 8.0 0.00 0.00 0.00 50 3407.8
20260501225532 15 307 3.2 4.8 0.00 0.00 0.00 50 3407.7
20260501225028 15 25 4.8 8.0 0.00 0.00 0.00 49 3407.6
20260501224526 15 45 1.6 3.2 0.00 0.00 0.00 49 3407.7
20260501224023 16 338 4.8 8.0 0.00 0.00 0.00 49 3407.8
20260501223519 16 307 8.0 11.3 0.00 0.00 0.00 47 3407.8
20260501223015 16 329 4.8 8.0 0.00 0.00 0.00 48 3407.7
20260501222511 15 277 3.2 3.2 0.00 0.00 0.00 50 3407.8
20260501222009 15 260 4.8 8.0 0.00 0.00 0.00 51 3407.9
20260501221505 16 246 1.6 3.2 0.00 0.00 0.00 49 3407.7
20260501221003 16 301 6.4 11.3 0.00 0.00 0.00 49 3407.7
20260501220501 16 39 0.0 0.0 0.00 0.00 0.00 46 3407.8
20260501215957 17 8 4.8 4.8 0.00 0.00 0.00 45 3407.7
20260501215453 17 137 1.6 4.8 0.00 0.00 0.00 48 3407.4
20260501214949 17 36 3.2 3.2 0.00 0.00 0.00 47 3407.7
20260501214444 17 292 4.8 4.8 0.00 0.00 0.00 47 3407.7
20260501213940 17 335 4.8 4.8 0.00 0.00 0.00 46 3407.9
20260501213438 17 49 1.6 3.2 0.00 0.00 0.00 47 3407.8
20260501212932 17 7 4.8 8.0 0.00 0.00 0.00 47 3408.1
20260501212430 17 109 0.0 0.0 0.00 0.00 0.00 49 3408.1
20260501211926 17 140 3.2 4.8 0.00 0.00 0.00 48 3408.1
20260501211424 17 307 4.8 8.0 0.00 0.00 0.00 45 3408.0
20260501210921 17 317 4.8 8.0 0.00 0.00 0.00 45 3407.9
20260501210418 17 344 1.6 3.2 0.00 0.00 0.00 45 3408.2
20260501205915 16 273 3.2 4.8 0.00 0.00 0.00 45 3408.1
20260501205411 16 292 6.4 8.0 0.00 0.00 0.00 47 3408.2
20260501204909 17 319 9.7 12.9 0.00 0.00 0.00 45 3408.3
20260501204404 17 73 1.6 3.2 0.00 0.00 0.00 46 3408.0
20260501203901 16 53 1.6 3.2 0.00 0.00 0.00 48 3408.2
20260501203358 16 44 0.0 0.0 0.00 0.00 0.00 47 3408.6
20260501202855 17 357 9.7 12.9 0.00 0.00 0.00 45 3408.3
20260501202352 17 213 1.6 3.2 0.00 0.00 0.00 46 3408.6
20260501201849 17 217 4.8 4.8 0.00 0.00 0.00 45 3408.5
20260501201346 16 224 3.2 4.8 0.00 0.00 0.00 45 3408.7
20260501200842 17 326 11.3 17.7 0.00 0.00 0.00 44 3408.8
20260501200339 17 334 3.2 3.2 0.00 0.00 0.00 43 3408.8
20260501195838 17 320 9.7 12.9 0.00 0.00 0.00 43 3408.9
20260501195332 17 110 0.0 3.2 0.00 0.00 0.00 44 3408.7
20260501194829 17 157 4.8 8.0 0.00 0.00 0.00 43 3408.8
20260501194325 16 17 6.4 11.3 0.00 0.00 0.00 44 3408.8
20260501193821 17 309 9.7 12.9 0.00 0.00 0.00 44 3408.7
20260501193320 17 261 6.4 11.3 0.00 0.00 0.00 41 3408.8
20260501192817 17 168 3.2 3.2 0.00 0.00 0.00 43 3408.9
20260501192314 17 252 4.8 12.9 0.00 0.00 0.00 41 3408.8
20260501191811 17 217 1.6 3.2 0.00 0.00 0.00 41 3408.8
20260501191308 17 288 8.0 17.7 0.00 0.00 0.00 39 3409.0
20260501190759 17 0 11.3 12.9 0.00 0.00 0.00 40 3409.0
20260501190255 17 339 4.8 8.0 0.00 0.00 0.00 39 3408.9
20260501185750 17 132 3.2 3.2 0.00 0.00 0.00 41 3408.9
20260501185247 16 7 9.7 11.3 0.00 0.00 0.00 39 3409.2
20260501184743 16 216 3.2 4.8 0.00 0.00 0.00 40 3409.2
20260501184238 16 283 6.4 8.0 0.00 0.00 0.00 40 3409.3
20260501183734 16 306 4.8 8.0 0.00 0.00 0.00 38 3408.9
20260501183232 16 329 16.1 29.0 0.00 0.00 0.00 40 3408.9
20260501182728 16 277 4.8 4.8 0.00 0.00 0.00 39 3408.9
20260501182225 16 37 1.6 3.2 0.00 0.00 0.00 41 3408.8
20260501181722 16 283 16.1 20.9 0.00 0.00 0.00 38 3408.9
20260501181219 16 253 8.0 12.9 0.00 0.00 0.00 40 3409.0
20260501180717 16 20 11.3 16.1 0.00 0.00 0.00 40 3408.7
20260501180213 16 5 12.9 20.9 0.00 0.00 0.00 41 3409.1
20260501175710 16 312 8.0 12.9 0.00 0.00 0.00 40 3408.9
20260501175207 16 14 3.2 4.8 0.00 0.00 0.00 43 3408.9
20260501174703 16 233 6.4 8.0 0.00 0.00 0.00 43 3408.8
20260501174201 16 54 1.6 3.2 0.00 0.00 0.00 42 3409.2
20260501173658 16 273 20.9 25.7 0.00 0.00 0.00 39 3409.2
20260501173155 16 9 6.4 8.0 0.00 0.00 0.00 43 3409.5
20260501172651 16 20 4.8 4.8 0.00 0.00 0.00 43 3409.2
20260501172146 16 30 1.6 3.2 0.00 0.00 0.00 45 3409.5
20260501171642 16 310 6.4 8.0 0.00 0.00 0.00 44 3409.5
20260501171139 15 217 6.4 8.0 0.00 0.00 0.00 44 3409.6
20260501170636 15 224 8.0 11.3 0.00 0.00 0.00 44 3409.7